SCP
0 0 0 0 0 0 0 0 0 0 0 0 0 0 -0 -0 -0 0 0 0 0 0 0 0 0 0 0 0 0 0 0 0 0 0 0 0 0 0 0 0 0 0 0 0
0 0 0 0 0 0 0 0 0 0 0 0 0 0 0 -0 -0 0 0 0 0 0 0 0 0 0 0 0 0 0 0 0 0 0 0 0 0 0 0 0 0 0 0 0
0 0 0 0 0 0 0 0 0 0 0 0 0 0 0 -0 -0 -0 -0 -0 -0 0 0 0 0 0 0 0 0 0 0 0 0 0 0 0 0 0 0 0 0 0 0 0
0 0 0 0 0 0 0 0 0 0 0 0 0 0 0 0 -0 -0 -0 -0 -0 0 0 0 0 0 0 0 0 0 0 0 0 0 0 0 0 0 0 0 0 0 0 0
0 0 0 0 0 0 0 0 0 0 0 0 0 0 0 0 -0 -0 -0 -0 0 0 0 0 0 0 0 0 0 0 0 0 0 0 0 0 0 0 0 0 0 0 0 0
0 0 0 0 0 0 0 0 0 0 0 0 0 0 0 0 0 0 0 0 0 0 0 0 0 0 0 0 0 0 0 0 0 0 0 0 0 0 0 0 0 0 0 0
0 0 0 0 0 0 0 0 0 0 0 0 0 0 0 0 0 0 0 0 0 0 0 0 0 0 0 0 0 0 0 0 0 0 0 0 0 0 0 0 0 0 0 0
0 0 0 0 0 0 0 0 0 0 0 0 0 0 0 0 0 0 0 0 0 0 0 0 0 0 0 0 0 0 0 0 0 0 0 0 0 0 0 0 0 0 0 0
0 0 0 0 0 0 0 0 0 0 0 0 0 0 0 0 0 0 0 0 0 0 0 0 0 0 0 0 0 0 0 0 0 0 0 0 0 0 0 0 0 0 0 0
0 0 0 0 0 0 0 0 0 0 0 0 0 0 0 0 0 0 0 0 0 0 0 0 0 0 0 0 0 0 0 0 0 0 0 0 0 0 0 0 0 0 0 0
0 0 0 0 0 0 0 0 0 0 0 0 0 0 0 0 0 0 0 0 0 0 0 0 0 0 0 0 0 0 0 0 0 0 0 0 0 0 0 0 0 0 0 0
0 0 0 0 0 0 0 0 0 0 0 0 0 0 0 0 0 0 0 0 0 0 0 0 0 0 0 0 0 0 0 0 0 0 0 0 0 0 0 0 0 0 0 0
0 0 0 0 0 0 0 0 0 0 0 0 0 0 0 0 0 0 0 0 0 0 0 0 0 0 0 0 0 0 0 0 0 0 0 0 0 0 0 0 0 0 0 0
0 0 0 0 0 0 0 0 0 0 0 0 0 0 0 0 0 0 0 0 0 0 0 0 0 0 0 0 0 0 0 0 0 0 0 0 0 0 0 0 0 0 0 0
0 0 0 0 0 0 0 0 0 0 0 0 0 0 0 0 0 0 0 0 0 0 0 0 0 0 0 0 0 0 0 0 0 0 0 0 0 0 0 0 0 0 0 0
0 0 0 0 0 0 0 0 0 0 0 0 0 0 0 0 0 0 0 0 0 0 0 0 0 0 0 0 0 0 0 0 0 0 0 0 0 0 0 0 0 0 0 0
0 0 0 0 0 0 0 0 0 0 0 0 0 0 0 0 0 0 0 0 0 0 0 0 0 0 0 0 0 0 0 0 0 0 0 0 0 0 0 0 0 0 0 0
0 0 0 0 0 0 0 0 0 0 0 0 0 0 0 0 0 0 0 0 0 0 0 0 0 0 0 0 0 0 0 0 0 0 0 0 0 0 0 0 0 0 0 0
0 0 0 0 0 0 0 0 0 0 0 0 0 0 0 0 0 0 0 0 0 0 0 0 0 0 0 0 0 0 0 0 0 0 0 0 0 0 0 0 0 0 0 0
0 0 0 0 0 0 0 0 0 0 0 0 0 0 0 0 0 0 0 0 0 0 0 0 0 0 0 0 0 0 0 0 0 0 0 0 0 0 0 0 0 0 0 0
0 0 0 0 0 0 0 0 0 0 0 0 0 0 0 0 0 0 0 0 0 0 0 0 0 0 0 0 0 0 0 0 0 0 0 0 0 0 0 0 0 0 0 0
0 0 0 0 0 0 0 0 0 0 0 0 0 0 0 0 0 0 0 0 0 0 0 0 0 0 0 0 0 0 0 0 0 0 0 0 0 0 0 0 0 0 0 0
0 0 0 0 0 0 0 0 0 0 0 0 0 0 0 0 0 0 0 0 0 0 0 0 0 0 0 0 0 0 0 0 0 0 0 0 0 0 0 0 0 0 0 0
0 0 0 0 0 0 0 0 0 0 0 0 0 0 0 0 0 0 0 0 0 0 0 0 0 0 0 0 0 0 0 0 0 0 0 0 0 0 0 0 0 0 0 0
0 0 0 0 0 0 0 0 0 0 0 0 0 0 0 0 0 0 0 0 0 0 0 0 0 0 0 0 0 0 -0 0 0 0 0 0 0 0 0 0 0 0 0 0
0 0 0 0 0 0 0 0 0 0 0 0 0 0 0 0 0 0 0 0 0 0 0 0 0 0 0 0 0 0 0 0 0 0 0 0 0 0 0 0 0 0 0 0
0 0 0 0 0 0 0 0 0 0 0 0 0 0 0 0 0 0 0 0 0 0 0 0 0 0 0 0 0 0 0 0 0 0 0 0 0 0 0 0 0 0 0 0
Wind_Speed
7 8 6 7 7 7 8 7 6 6 5 5 3 2 2 1 0 1 2 2 3 3 3 4 4 5 5 5 5 5 6 6 6 6 5 5 5 5 5 5 4 4 3 3
6 7 7 9 9 9 9 9 9 9 10 4 2 1 2 1 1 1 2 2 2 3 3 4 4 4 5 5 5 5 5 5 5 6 6 5 5 5 5 5 4 4 3 3
4 3 5 8 8 10 7 6 6 8 6 2 2 3 3 2 2 2 1 1 2 2 2 3 3 3 4 4 4 5 5 5 5 5 5 5 5 5 5 5 4 4 4 4
4 5 6 5 1 3 5 6 6 6 5 3 3 2 3 2 2 2 1 1 2 2 2 2 2 2 3 3 3 4 5 5 5 5 5 5 5 5 5 4 4 4 4 4
3 5 8 4 2 2 3 5 5 5 4 2 1 2 3 2 2 1 1 1 1 1 2 1 2 2 2 3 3 3 4 5 5 5 5 5 6 6 5 5 4 4 4 4
3 4 7 3 2 2 1 5 2 2 2 1 1 2 3 1 1 1 1 1 1 1 1 1 1 2 2 2 3 3 4 4 4 4 5 5 5 5 5 4 4 4 4 4
6 6 8 2 3 4 3 4 0 0 1 2 3 4 2 1 1 2 1 1 1 1 1 1 1 1 2 2 2 3 3 3 4 4 4 4 4 4 4 4 5 4 4 4
5 6 9 3 4 5 4 0 0 1 2 2 3 2 2 2 2 2 2 1 1 1 1 1 1 1 2 2 2 2 2 3 3 4 4 4 4 4 4 5 5 5 4 4
7 8 3 4 5 3 1 2 2 2 3 2 3 4 3 3 3 3 3 3 2 2 2 2 1 1 2 3 2 2 2 3 3 4 3 4 4 5 4 4 4 4 4 4
6 7 5 5 5 5 4 4 3 3 3 3 4 4 4 3 3 3 3 3 3 3 3 3 2 2 2 2 2 1 2 3 3 3 3 4 3 3 3 4 4 4 4 5
8 8 6 6 5 4 3 3 3 4 4 4 4 5 5 4 4 4 3 3 3 4 4 4 2 2 2 1 1 2 2 2 2 2 3 3 3 3 3 3 3 4 4 4
9 6 4 4 2 2 3 4 4 5 5 4 4 5 5 5 4 4 4 3 3 4 4 3 3 2 2 2 1 1 2 2 2 2 2 2 3 4 4 4 6 6 6 6
9 5 5 6 4 3 4 4 4 5 5 5 4 4 5 5 4 4 4 4 5 4 4 3 3 3 2 2 2 2 2 2 2 2 2 2 3 3 5 6 6 7 7 9
7 5 7 6 5 4 4 4 4 4 5 4 4 4 4 4 4 4 4 4 4 4 4 3 3 3 2 2 2 2 2 2 2 2 2 2 2 3 3 4 5 5 6 9
8 7 7 5 4 4 3 3 4 5 5 4 4 4 4 5 5 5 4 3 3 4 4 3 4 4 2 2 2 2 2 1 1 1 2 2 2 3 3 4 4 5 5 6
5 5 5 6 6 6 5 5 6 6 5 5 5 5 5 5 5 4 3 3 4 5 4 4 4 3 2 2 2 2 2 3 2 1 2 2 2 2 3 3 4 4 4 5
6 6 6 6 7 7 6 6 6 6 5 5 5 5 4 4 4 4 4 4 4 4 4 4 3 2 3 3 3 2 2 2 2 2 2 2 2 2 3 3 4 4 4 5
8 7 6 6 6 6 6 5 5 6 5 5 4 4 4 4 5 5 4 3 2 3 3 3 3 2 3 3 2 2 1 1 2 2 2 2 2 2 3 3 4 4 4 5
5 5 5 5 5 5 5 5 5 5 4 4 4 5 5 5 5 4 3 3 4 4 4 3 4 3 3 3 3 2 2 2 2 2 2 3 3 2 3 3 3 4 4 4
4 3 4 4 3 4 5 4 4 4 4 4 4 4 5 5 4 3 3 4 5 4 3 3 3 3 3 3 3 2 2 2 2 2 2 2 2 3 3 3 3 3 3 4
4 4 3 4 4 4 4 4 4 4 4 3 4 5 4 4 3 3 3 4 3 2 3 4 3 2 2 3 3 2 2 2 2 2 2 2 2 3 3 3 3 3 3 4
4 3 4 4 4 4 4 3 4 4 4 3 4 4 3 3 3 3 4 4 3 3 2 2 2 3 3 3 2 2 2 2 2 2 2 2 2 3 3 3 3 3 3 3
3 4 4 4 4 4 3 3 3 4 4 4 4 4 4 3 3 3 3 2 2 3 2 2 3 5 5 2 2 2 2 2 2 2 2 2 2 2 3 3 3 3 3 3
4 4 4 3 3 3 4 4 3 3 3 3 3 3 3 2 2 2 2 2 3 3 2 3 4 4 4 2 2 2 2 2 2 2 2 2 2 2 2 3 3 3 3 4
4 4 4 3 4 4 4 3 2 2 2 2 2 2 2 2 2 2 1 2 3 2 1 2 4 4 2 1 2 2 2 2 2 2 2 2 2 2 3 3 3 3 3 3
5 4 4 5 4 4 3 3 3 2 2 2 2 1 1 1 1 1 1 2 2 2 1 1 2 2 1 1 2 2 2 2 2 2 2 2 3 3 2 3 3 3 3 3
4 4 3 3 4 4 4 4 4 4 3 3 2 2 2 2 2 2 2 2 2 1 1 1 1 1 1 1 1 1 1 2 2 2 2 2 2 2 3 3 3 3 2 3
Wind_Direction
277 282 274 256 247 227 218 222 234 259 269 271 269 256 251 239 347 351 350 349 351 351 351 353 354 355 357 355 355 353 360 3 356 351 348 351 356 360 2 5 9 5 359 358
276 258 258 261 247 234 233 233 245 265 275 261 223 223 233 227 221 293 318 339 341 341 345 344 346 349 351 349 348 355 359 354 351 351 350 353 357 360 4 5 6 4 359 356
279 286 302 268 235 212 215 214 217 239 250 246 249 250 249 235 225 249 289 322 325 319 321 329 333 337 338 337 344 353 352 350 352 352 351 351 357 3 1 356 355 356 351 350
288 312 261 245 59 179 214 234 226 245 266 265 250 258 253 223 202 221 251 279 294 304 305 308 317 325 327 335 349 350 349 352 355 355 352 351 359 0 352 343 347 343 343 345
279 280 275 251 197 182 213 260 226 233 253 271 357 318 267 193 158 200 224 240 246 268 282 299 310 310 320 332 344 347 348 350 353 354 351 353 355 350 345 342 344 341 342 346
258 263 259 259 126 90 82 274 236 201 223 215 86 272 265 174 152 216 224 204 228 277 296 305 317 321 310 316 333 340 340 343 348 350 350 349 344 340 337 337 335 333 337 343
239 254 265 247 143 126 178 248 158 211 228 202 221 235 262 288 218 208 215 219 221 259 273 278 303 316 312 325 322 320 329 339 342 342 341 341 340 341 338 338 339 338 338 341
205 228 251 172 145 194 221 168 255 277 263 252 257 275 271 262 238 223 223 221 220 235 261 274 280 292 299 300 304 322 332 335 336 335 337 342 339 340 342 345 344 344 343 341
210 224 236 177 202 221 181 250 264 271 275 268 268 267 262 255 243 231 226 224 220 221 247 260 251 248 272 288 309 326 328 324 324 330 334 336 337 340 342 345 346 344 342 336
265 261 258 240 239 242 230 243 261 268 270 266 267 270 268 254 248 237 228 226 222 220 234 249 250 254 261 287 310 315 314 315 321 328 332 333 333 337 338 338 339 338 336 330
257 268 279 258 245 248 245 252 268 267 258 252 252 263 262 258 250 240 234 226 223 226 231 236 236 249 263 276 289 289 295 303 317 324 327 325 327 327 326 322 331 325 320 320
243 242 245 271 284 272 253 252 254 260 266 258 245 253 260 260 250 238 232 228 231 234 239 238 228 234 244 248 244 250 280 298 307 316 319 321 326 330 331 320 329 330 326 324
250 266 269 278 282 272 263 261 259 255 255 261 254 248 255 259 253 239 233 227 226 231 235 235 232 230 226 223 225 232 253 276 293 301 309 315 322 325 326 328 326 325 329 332
250 259 267 264 264 268 261 264 265 264 259 252 250 250 253 258 257 245 237 234 230 228 227 225 229 231 218 208 215 230 240 250 268 280 294 301 310 314 316 320 324 327 329 331
244 233 242 260 264 264 261 263 267 266 265 262 253 248 248 253 253 250 244 235 228 226 224 219 226 234 211 200 206 222 230 244 262 281 290 295 303 308 311 313 314 317 323 330
241 242 246 250 255 257 254 250 251 256 256 257 256 252 250 250 254 253 239 218 220 230 226 218 226 228 200 195 203 217 228 240 258 280 288 292 301 307 309 311 311 313 316 322
236 244 243 249 251 252 247 245 247 251 254 254 254 256 257 255 257 252 240 228 227 233 226 214 220 209 189 192 199 218 230 238 243 265 261 269 283 289 296 300 301 304 308 316
230 234 231 237 244 251 253 251 250 251 253 257 258 251 245 240 244 245 240 233 234 242 227 206 200 196 193 195 200 210 222 231 234 244 257 265 281 283 289 294 300 304 310 316
231 235 238 240 242 243 248 250 252 252 254 250 248 249 247 244 241 237 225 215 224 237 234 205 203 193 200 206 200 201 213 230 242 252 256 267 276 277 280 287 293 299 306 313
236 238 242 247 247 245 249 252 254 255 252 241 240 245 249 249 237 226 218 227 229 231 214 201 198 201 203 205 198 198 208 224 239 251 254 254 264 274 279 285 292 298 304 308
232 233 239 246 253 253 249 250 247 251 252 238 232 236 242 245 225 211 216 245 245 212 200 200 194 198 198 201 197 198 206 221 235 244 250 255 263 271 277 286 293 298 302 307
227 227 234 239 246 257 257 248 241 243 246 243 238 233 234 237 227 224 229 233 230 208 200 201 198 204 207 199 191 198 210 221 231 237 243 251 258 267 273 281 284 291 297 301
224 226 231 234 240 251 258 248 239 236 238 236 231 225 224 230 216 216 249 238 208 210 201 204 212 213 212 195 192 202 210 220 231 235 240 247 253 260 269 274 279 285 290 295
220 224 231 235 236 244 253 253 243 237 237 239 233 222 213 224 248 239 230 209 203 210 208 210 213 220 212 190 192 205 215 224 230 233 239 244 249 256 265 273 279 284 287 292
222 223 223 220 227 237 241 242 240 236 232 239 239 226 214 212 223 232 207 202 204 197 206 218 221 220 204 191 200 212 219 229 235 231 229 238 247 253 258 264 271 279 283 285
221 224 223 221 224 225 218 212 219 222 217 231 248 237 216 201 189 185 182 190 196 200 200 207 210 207 200 206 215 221 226 247 257 250 242 244 249 252 256 261 266 272 278 283
222 225 225 231 228 220 215 212 214 217 213 213 227 220 200 188 180 180 180 184 188 189 191 195 196 201 212 217 222 227 234 239 240 242 240 241 247 250 254 257 262 267 273 278